Вернуться в каталог

FENGYUN 1C DEB

АктивенPO
NORAD 31878·DEBRIS·🇨🇳 China

Запущен May 10, 1999 с Taiyuan Satellite Launch Center

Loading…

Ближайшие Пролёты (ближайшие 24 часа)

TLE

СвежийSource: Space-Track

Эпоха: Sep 13, 2026, 04:06 UTC

1 31878U 99025CKD 26256.17129365  .00006616  00000-0  62695-3 0  9997
2 31878  99.4617 237.6395 0077392  93.9975 267.0090 14.91773458 21477

Отслеживайте FENGYUN 1C DEB в реальном времени с AllMySat

Download on the App Store